Location: ??????????
(44.2167°N, 135.5333°E)
Time: 15:24:26
(UTC+00:00)

Atlas Centaur 2 - Pass Details

Date: 15 June 2025
Orbit: 456 x 1256 km, 30.4° (Epoch: 15 July)

Event Time Altitude Azimuth Distance (km) Brightness Sun altitude
Exits shadow 16:40:42 16° 163° (SSE) 2,771 4.4 -18.5°
Maximum altitude 16:41:40 16° 155° (SSE) 2,760 4.5 -18.4°
Drops below altitude 10° 16:46:14 10° 120° (ESE) 3,227 5.2 -18.1°
Sets 16:50:27 0° 101° (ESE) 4,167 6.0 -17.7°
